[[{"header":{"parameterUnit":"m.s-1","parameterCategory":1,"la1":30.2991,"la2":30.254,"lo1":-89.0895,"lo2":-89.0444,"dx":0.0017,"dy":0.0017,"nx":28,"ny":28,"refTime":"2022-11-26T09:00:00:Z","depth":0,"parameterNumber":2,"parameterNumberName":"U-component_of_WINDS"},"data":[0,0,0,0,0,0,0,0,0,0,0,0,0,0,0,0,0,0,0,0,0,0,0,0,0,0,0,0,0,0,0,0,0,0,0,0,0,0,0,0,0,0,0,0,0,0,0,0,0,0,0,0,0,0,0,0,0,0,-2.3983,-2.3984,0,-2.4045,-2.4046,-2.4047,-2.4021,-2.4019,-2.4018,-2.4017,-2.4084,-2.4087,-2.409,0,0,0,0,0,0,0,0,0,0,0,0,0,-2.3847,-2.385,-2.3983,-2.3984,-2.3985,-2.4045,-2.4046,-2.4047,-2.4021,-2.4019,-2.4018,-2.4016,-2.4083,-2.4086,-2.409,0,0,0,0,0,0,0,0,0,0,0,0,0,-2.3907,-2.385,-2.3983,-2.3979,-2.3979,-2.4045,-2.4046,-2.4047,-2.4022,-2.4019,-2.4017,-2.4015,-2.4081,-2.4086,-2.4091,-2.4165,0,0,-2.4105,-2.4107,0,0,0,0,0,0,0,0,-2.3904,-2.3912,-2.3979,-2.398,-2.398,-2.4023,-2.4022,-2.4087,-2.4022,-2.4006,-2.4017,-2.4014,-2.4066,-2.4072,-2.4088,-2.4168,-2.4171,-2.4106,-2.4109,-2.4111,-2.4112,0,0,0,0,0,0,0,-2.39,-2.391,-2.4008,-2.398,-2.3981,-2.3976,-2.3982,-2.4035,-2.4048,-2.4007,-2.4005,-2.4013,-2.4065,-2.4084,-2.409,-2.4172,-2.4106,-2.411,-2.4113,-2.4115,-2.4317,-2.432,0,0,0,0,0,0,-2.3895,-2.3906,-2.4006,-2.401,-2.3936,-2.398,-2.3987,-2.4012,-2.4047,-2.405,-2.4015,-2.4011,-2.4077,-2.4084,-2.4092,-2.4182,-2.4111,-2.4115,-2.4118,-2.4315,-2.4318,-2.4321,0,0,0,0,0,0,-2.3892,-2.3904,-2.4003,-2.3958,-2.397,-2.3985,-2.4013,-2.4014,-2.4032,-2.4053,-2.4055,-2.403,-2.4075,-2.4085,-2.4147,-2.4184,-2.4117,-2.4122,-2.4312,-2.4316,-2.4319,-2.4363,0,0,0,0,0,0,-2.3888,-2.3903,-2.3931,-2.3958,-2.3972,-2.4056,-2.4015,-2.4017,-2.404,-2.4036,-2.4068,-2.4071,-2.4074,-2.414,-2.4152,-2.4189,-2.4125,-2.4309,-2.4314,-2.4318,-2.4358,-2.4368,-2.4376,0,0,0,0,0,-2.3884,-2.3941,-2.3932,-2.3944,-2.4007,-2.4059,-2.4067,-2.4068,-2.4043,-2.4071,-2.4085,-2.407,-2.4178,-2.4147,-2.416,-2.4199,-2.4306,-2.4312,-2.4318,-2.4354,-2.4366,-2.4375,0,0,0,0,0,0,-2.3918,-2.3944,-2.3935,-2.4002,-2.4028,-2.4054,-2.409,-2.408,-2.4114,-2.4109,-2.411,-2.4118,-2.4182,-2.4196,-2.4161,-2.4274,-2.4239,-2.4247,-2.4262,-2.4273,-2.4282,-2.4277,-2.4129,0,0,0,0,0,-2.3933,-2.3972,-2.3993,-2.4051,-2.4064,-2.4075,-2.4098,-2.4096,-2.4123,-2.4135,-2.4152,-2.4181,-2.4221,-2.4247,-2.4285,-2.436,-2.4367,-2.4393,-2.4402,-2.4409,-2.4417,-2.4459,-2.4472,-2.4339,-2.4339,-2.4339,0,0,-2.3966,-2.3985,-2.4009,-2.4058,-2.4078,-2.412,-2.4084,-2.413,-2.4161,-2.4142,-2.4201,-2.4216,-2.4247,-2.4316,-2.4347,-2.433,-2.4455,-2.4417,-2.4422,-2.4426,-2.4467,-2.4479,-2.449,-2.4343,-2.4343,-2.4342,0,0,-2.4046,-2.4064,-2.4114,-2.4135,-2.4165,-2.4172,-2.4184,-2.4212,-2.422,-2.4279,-2.4266,-2.4304,-2.4373,-2.4397,-2.4418,-2.4508,-2.4497,-2.452,-2.4567,-2.4608,-2.4618,-2.4627,-2.4661,-2.4673,-2.4528,-2.4528,-2.4528,0,-2.4083,-2.4144,-2.4142,-2.4189,-2.4212,-2.4195,-2.4247,-2.4267,-2.4309,-2.4326,-2.4306,-2.4393,-2.4413,-2.4488,-2.451,-2.4526,-2.4542,-2.4517,-2.4616,-2.4626,-2.4635,-2.4667,-2.468,-2.4531,-2.453,-2.453,-2.453,0,-2.4189,-2.4231,-2.4269,-2.4309,-2.4335,-2.4385,-2.4392,-2.4419,-2.4415,-2.4425,-2.4487,-2.451,-2.4553,-2.457,-2.4567,-2.4646,-2.4634,-2.4615,-2.4581,-2.465,-2.4681,-2.4693,-2.4535,-2.4534,-2.4533,-2.4532,0,0,-2.4293,-2.4331,-2.4345,-2.4364,-2.4396,-2.443,-2.4479,-2.452,-2.4545,-2.4574,-2.4617,-2.4675,-2.4658,-2.4682,-2.4682,-2.4717,-2.479,-2.4694,-2.4695,-2.4713,-2.4879,-2.4895,-2.4909,-2.4782,-2.4784,-2.4786,-2.4877,0,-2.4378,-2.4463,-2.4463,-2.4542,-2.4582,-2.4567,-2.461,-2.4636,-2.4646,-2.4683,-2.4694,-2.4737,-2.471,-2.4724,-2.4759,-2.4774,-2.4823,-2.4767,-2.4824,-2.4826,-2.4818,-2.4925,-2.4941,-2.5026,-2.4889,-2.4891,-2.4893,0,-2.4487,-2.452,-2.4603,-2.463,-2.4647,-2.4686,-2.4724,-2.4759,-2.4788,-2.4793,-2.482,-2.4814,-2.4866,-2.4828,-2.4901,-2.4862,-2.4886,-2.4896,-2.49,-2.4907,-2.4864,-2.4936,-2.5053,-2.5066,-2.4911,-2.491,-2.4908,0,-2.4558,-2.4622,-2.468,-2.4696,-2.4729,-2.4757,-2.4772,-2.4799,-2.4824,-2.4858,-2.4875,-2.4914,-2.4937,-2.4968,-2.4974,-2.4946,-2.5048,-2.501,-2.5056,-2.5056,-2.5079,-2.5078,-2.5203,-2.5091,-2.5091,-2.5091,-2.509,0,-2.4653,-2.4704,-2.4712,-2.4748,-2.4806,-2.4806,-2.4864,-2.4878,-2.4902,-2.4941,-2.493,-2.4968,-2.4973,-2.5012,-2.5017,-2.5078,-2.5088,-2.5095,-2.5096,-2.5097,-2.5096,-2.5113,-2.5108,-2.5094,-2.5093,-2.5093,-2.5092,0,-2.4741,-2.4748,-2.4811,-2.4837,-2.4845,-2.4887,-2.491,-2.4945,-2.4954,-2.5004,-2.5016,-2.5031,-2.5077,-2.5085,-2.514,-2.5143,-2.5216,-2.5211,-2.5206,-2.5206,-2.5252,-2.5248,-2.5394,-2.5413,-2.5287,-2.5288,-2.5289,0,-2.4802,-2.4842,-2.4872,-2.4897,-2.4914,-2.4954,-2.498,-2.4982,-2.5009,-2.5045,-2.5077,-2.5121,-2.5157,-2.5232,-2.5249,-2.5291,-2.5287,-2.5335,-2.5294,-2.5294,-2.529,-2.5289,-2.5293,-2.5344,-2.5345,-2.5346,-2.5347,0,-2.491,-2.4912,-2.4948,-2.4987,-2.5017,-2.5048,-2.5076,-2.5098,-2.5104,-2.5135,-2.5182,-2.521,-2.5265,-2.531,-2.5352,-2.537,-2.5361,-2.536,-2.5373,-2.5375,-2.5372,-2.5376,-2.523,-2.5357,-2.5356,-2.5355,-2.5355,-2.5354,-2.4988,-2.5023,-2.505,-2.5092,-2.5113,-2.5141,-2.5176,-2.5189,-2.5227,-2.5272,-2.527,-2.5322,-2.5352,-2.5407,-2.5427,-2.5468,-2.5453,-2.5472,-2.5477,-2.5482,-2.5487,-2.5364,-2.5476,-2.5476,-2.5475,-2.5475,-2.5475,0,-2.5097,-2.5114,-2.5152,-2.5192,-2.5226,-2.5212,-2.5243,-2.5273,-2.5318,-2.5345,-2.5381,-2.5435,-2.5479,-2.5499,-2.5543,-2.5572,-2.5569,-2.5584,-2.5583,-2.5587,-2.5497,-2.5482,-2.5586,-2.5586,-2.5586,-2.5586,-2.5586,-2.5586,-2.5158,-2.5217,-2.5222,-2.5292,-2.5309,-2.5358,-2.5378,-2.5404,-2.5426,-2.5487,-2.5523,-2.5535,-2.556,-2.5606,-2.5646,-2.5651,-2.5669,-2.5686,-2.5689,-2.5605,-2.5593,-2.5583,-2.5569,-2.5689,-2.5689,-2.5776,-2.5777,-2.5778]},{"header":{"parameterUnit":"m.s-1","parameterCategory":1,"la1":30.2991,"la2":30.254,"lo1":-89.0895,"lo2":-89.0444,"dx":0.0017,"dy":0.0017,"nx":28,"ny":28,"refTime":"2022-11-26T09:00:00:Z","depth":0,"parameterNumber":3,"parameterNumberName":"V-component_of_WINDS"},"data":[0,0,0,0,0,0,0,0,0,0,0,0,0,0,0,0,0,0,0,0,0,0,0,0,0,0,0,0,0,0,0,0,0,0,0,0,0,0,0,0,0,0,0,0,0,0,0,0,0,0,0,0,0,0,0,0,0,0,-2.6651,-2.6652,0,-2.6685,-2.6686,-2.6686,-2.6661,-2.666,-2.6659,-2.6658,-2.6689,-2.6691,-2.6693,0,0,0,0,0,0,0,0,0,0,0,0,0,-2.6562,-2.6564,-2.6651,-2.6652,-2.6652,-2.6685,-2.6686,-2.6686,-2.6661,-2.666,-2.6659,-2.6658,-2.6688,-2.6691,-2.6693,0,0,0,0,0,0,0,0,0,0,0,0,0,-2.6599,-2.6564,-2.6651,-2.6644,-2.6644,-2.6685,-2.6686,-2.6686,-2.6662,-2.666,-2.6658,-2.6657,-2.6688,-2.669,-2.6693,-2.6742,0,0,-2.6701,-2.6703,0,0,0,0,0,0,0,0,-2.6597,-2.6602,-2.6645,-2.6645,-2.6644,-2.6667,-2.6665,-2.6705,-2.6662,-2.6655,-2.6658,-2.6656,-2.6683,-2.6686,-2.6696,-2.6744,-2.6745,-2.6702,-2.6703,-2.6704,-2.6705,0,0,0,0,0,0,0,-2.6594,-2.66,-2.6665,-2.6645,-2.6645,-2.6638,-2.6641,-2.6673,-2.6677,-2.6655,-2.6654,-2.6658,-2.6682,-2.6693,-2.6696,-2.6745,-2.6702,-2.6704,-2.6706,-2.6707,-2.6835,-2.6837,0,0,0,0,0,0,-2.6593,-2.6599,-2.6664,-2.6666,-2.6616,-2.6641,-2.6645,-2.6662,-2.6677,-2.6678,-2.6659,-2.6657,-2.6689,-2.6693,-2.6697,-2.6756,-2.6704,-2.6707,-2.6709,-2.6833,-2.6836,-2.6838,0,0,0,0,0,0,-2.6591,-2.6599,-2.6662,-2.6632,-2.6639,-2.6644,-2.6663,-2.6663,-2.6674,-2.668,-2.668,-2.667,-2.6688,-2.6693,-2.6731,-2.6757,-2.6708,-2.6711,-2.6831,-2.6834,-2.6837,-2.6874,0,0,0,0,0,0,-2.6589,-2.6598,-2.6618,-2.6632,-2.6641,-2.6697,-2.6665,-2.6665,-2.6679,-2.6676,-2.669,-2.6691,-2.6687,-2.6727,-2.6734,-2.6759,-2.6713,-2.6829,-2.6833,-2.6836,-2.687,-2.6877,-2.6883,0,0,0,0,0,-2.6586,-2.6626,-2.6619,-2.6627,-2.6666,-2.6699,-2.6703,-2.67,-2.6681,-2.67,-2.6704,-2.669,-2.6753,-2.6732,-2.6739,-2.6765,-2.6828,-2.6832,-2.6835,-2.6867,-2.6876,-2.6883,0,0,0,0,0,0,-2.6613,-2.6628,-2.662,-2.6667,-2.6682,-2.6694,-2.6719,-2.6709,-2.6728,-2.6724,-2.6718,-2.6721,-2.6761,-2.6767,-2.6743,-2.6814,-2.6787,-2.6793,-2.6809,-2.6817,-2.6823,-2.6821,-2.6715,0,0,0,0,0,-2.6625,-2.6652,-2.6663,-2.6703,-2.6711,-2.6714,-2.6728,-2.6724,-2.6738,-2.6744,-2.6751,-2.6765,-2.6787,-2.6802,-2.6823,-2.6871,-2.6873,-2.6893,-2.6899,-2.6904,-2.6909,-2.6935,-2.6943,-2.6851,-2.6851,-2.6851,0,0,-2.6649,-2.6661,-2.6678,-2.6709,-2.672,-2.6747,-2.6719,-2.6748,-2.6768,-2.6748,-2.6785,-2.679,-2.6805,-2.6848,-2.6867,-2.6854,-2.6936,-2.691,-2.6914,-2.6916,-2.694,-2.6949,-2.6956,-2.6853,-2.6853,-2.6852,0,0,-2.6707,-2.6719,-2.6754,-2.6766,-2.6783,-2.6785,-2.6793,-2.6807,-2.6811,-2.6848,-2.6834,-2.6856,-2.6895,-2.6907,-2.6917,-2.698,-2.6968,-2.6987,-2.7021,-2.7046,-2.7053,-2.706,-2.7082,-2.709,-2.6992,-2.6992,-2.6992,0,-2.6735,-2.6776,-2.6773,-2.6804,-2.6818,-2.6802,-2.6837,-2.6848,-2.6871,-2.6881,-2.6866,-2.6915,-2.6924,-2.6969,-2.6985,-2.6994,-2.7003,-2.6985,-2.7053,-2.7059,-2.7065,-2.7086,-2.7095,-2.6994,-2.6994,-2.6994,-2.6993,0,-2.6809,-2.6838,-2.6864,-2.6888,-2.6905,-2.6937,-2.6938,-2.6955,-2.6949,-2.6952,-2.699,-2.7,-2.7023,-2.7033,-2.7028,-2.7078,-2.7069,-2.7054,-2.7027,-2.7076,-2.7096,-2.7104,-2.6997,-2.6997,-2.6996,-2.6995,0,0,-2.6885,-2.6908,-2.6918,-2.6929,-2.6947,-2.6968,-2.7,-2.7024,-2.7039,-2.7055,-2.7081,-2.7115,-2.71,-2.7113,-2.7108,-2.713,-2.7179,-2.7111,-2.7112,-2.7124,-2.7235,-2.7247,-2.7256,-2.7171,-2.7172,-2.7173,-2.7234,0,-2.6945,-2.7001,-2.6999,-2.7052,-2.7078,-2.7064,-2.7091,-2.7105,-2.7108,-2.713,-2.7133,-2.7157,-2.7136,-2.7144,-2.7165,-2.7168,-2.7201,-2.7164,-2.7194,-2.7195,-2.7191,-2.7266,-2.7279,-2.7335,-2.7241,-2.7243,-2.7243,0,-2.7021,-2.7042,-2.7098,-2.7112,-2.7123,-2.7148,-2.717,-2.7191,-2.7206,-2.7207,-2.7221,-2.7213,-2.7244,-2.7216,-2.7258,-2.7233,-2.7245,-2.7248,-2.725,-2.7253,-2.7222,-2.7271,-2.7353,-2.7362,-2.7256,-2.7255,-2.7254,0,-2.7072,-2.7113,-2.7152,-2.7161,-2.718,-2.7198,-2.7206,-2.7219,-2.7234,-2.7252,-2.7261,-2.7283,-2.7294,-2.7311,-2.7308,-2.7288,-2.7351,-2.7323,-2.7352,-2.7352,-2.7366,-2.7365,-2.7451,-2.7373,-2.7373,-2.7373,-2.7373,0,-2.7138,-2.7173,-2.7175,-2.7199,-2.7237,-2.7233,-2.727,-2.7276,-2.7289,-2.7312,-2.7301,-2.7323,-2.7318,-2.734,-2.7338,-2.7373,-2.7379,-2.738,-2.7379,-2.7381,-2.7381,-2.7389,-2.7385,-2.7375,-2.7375,-2.7374,-2.7374,0,-2.7201,-2.7204,-2.7245,-2.7259,-2.7264,-2.7291,-2.7303,-2.7325,-2.7327,-2.7357,-2.7364,-2.7368,-2.7393,-2.7392,-2.7421,-2.7419,-2.7462,-2.7457,-2.7458,-2.7457,-2.7486,-2.7483,-2.758,-2.7593,-2.7507,-2.7508,-2.7508,0,-2.7243,-2.727,-2.7287,-2.7303,-2.7313,-2.7338,-2.7354,-2.7351,-2.7367,-2.7386,-2.7406,-2.743,-2.745,-2.7491,-2.7495,-2.7516,-2.7511,-2.7544,-2.7514,-2.7516,-2.7512,-2.751,-2.7513,-2.7549,-2.755,-2.7551,-2.7552,0,-2.7318,-2.7318,-2.7341,-2.7365,-2.7384,-2.7403,-2.7419,-2.7432,-2.7432,-2.745,-2.7477,-2.7492,-2.7521,-2.7546,-2.7566,-2.7573,-2.7562,-2.7561,-2.7569,-2.7571,-2.7571,-2.7572,-2.7474,-2.7559,-2.7558,-2.7558,-2.7557,-2.7557,-2.7372,-2.7395,-2.7411,-2.7437,-2.745,-2.7466,-2.7488,-2.7493,-2.7516,-2.7541,-2.7537,-2.7567,-2.758,-2.7607,-2.7616,-2.7639,-2.7627,-2.7638,-2.7641,-2.7644,-2.7647,-2.7568,-2.7642,-2.7642,-2.7642,-2.7642,-2.7641,0,-2.7446,-2.7456,-2.748,-2.7505,-2.7525,-2.7515,-2.7533,-2.755,-2.7577,-2.7591,-2.7611,-2.7641,-2.7665,-2.7671,-2.7694,-2.771,-2.7706,-2.7716,-2.7715,-2.7717,-2.7656,-2.7648,-2.7719,-2.7719,-2.7719,-2.7719,-2.7719,-2.7719,-2.7487,-2.7526,-2.7528,-2.7572,-2.7582,-2.7612,-2.7623,-2.7637,-2.7649,-2.7684,-2.7704,-2.7708,-2.7719,-2.7742,-2.7763,-2.7764,-2.7773,-2.7786,-2.7785,-2.7729,-2.7721,-2.7713,-2.7705,-2.7788,-2.7788,-2.7843,-2.7844,-2.7844]}]]